Regional Weather Roundup
Issued by NWS State College, PA

Home | Current Version | Previous Version | Graphics & Text | Print | Product List | Glossary Off
Versions: 1 2 3 4 5 6 7 8 9 10 11 12 13 14 15 16 17 18 19 20 21 22 23 24 25 26 27 28 29 30 31 32 33 34 35 36 37 38 39 40 41 42 43 44 45 46 47 48 49 50

000
ASUS41 KCTP 290103
RWRCTP

REGIONAL WEATHER ROUNDUP
NATIONAL WEATHER SERVICE STATE COLLEGE PA
800 PM EST SUN DEC 28 2014

Note: "fair" indicates few or no clouds below 12,000 feet with no
significant weather and/or obstructions to visibility.

* = STATION THAT DOES NOT REPORT PRECIPITATION /E.G. RAIN...SNOW...ETC/
    THUNDER OR FOG.

PAZ002>004-007>009-013>016-020>023-029>032-290200-
WESTERN PENNSYLVANIA

CITY           SKY/WX    TMP DP  RH WIND       PRES   REMARKS
ERIE           CLOUDY    36  29  75 W3        30.11S
MEADVILLE      CLOUDY    32  28  85 W3        30.09S
FRANKLIN*      CLOUDY    30  25  80 W5        30.09F
NEW CASTLE       N/A     33  30  89 CALM      30.14R
BEAVER COUNTY  NOT AVBL
BUTLER*        CLOUDY    34  30  86 CALM      30.12R
PITTSBURGH INT CLOUDY    36  30  79 NW6       30.11R
PITTSBURGH     CLOUDY    36  27  69 NW6       30.10R
INDIANA*       CLOUDY    36  32  87 NW5       30.12S
LATROBE        CLOUDY    34  34 100 SW6       30.12R FOG
WASHINGTON CO* NOT AVBL
$$

PAZ004>006-010>012-017>019-024>028-033>037-041-042-045-046-049>053-290200-
CENTRAL PENNSYLVANIA

CITY           SKY/WX    TMP DP  RH WIND       PRES   REMARKS
BRADFORD       CLOUDY    29  23  78 NW8       30.04S
DUBOIS         CLOUDY    32  27  81 NW6       30.06R
CLEARFIELD     CLOUDY    35  27  72 NW9       30.07R
JOHNSTOWN      CLOUDY    32  29  88 NW8       30.04R
ALTOONA        MOCLDY    35  30  82 NW7       30.07R
STATE COLLEGE  CLOUDY    37  28  70 NW10      30.06R
WILLIAMSPORT   CLOUDY    41  29  62 NW8       30.06R
SELINSGROVE    CLOUDY    43  31  62 NW8       30.06R
FT INDIANTOWN  CLOUDY    44  33  64 NW13      30.04R
CAPITAL CITY   CLOUDY    45  31  58 NW10      30.05R
HARRISBURG     CLOUDY    44  32  62 NW14      30.04R
YORK           CLOUDY    45  35  68 N12       30.05R
$$

PAZ038>040-043-044-047-048-054-055-060>062-067>071-290200-
EASTERN PENNSYLVANIA

CITY           SKY/WX    TMP DP  RH WIND       PRES   REMARKS
SCRANTON       CLOUDY    39  30  70 NW12G21   30.03R
MOUNT POCONO   CLOUDY    35  30  82 NW8       29.96S
ALLENTOWN      CLOUDY    43  34  70 NW6       30.02R
QUAKERTOWN*    CLOUDY    46  37  71 N9        30.01R
READING        CLOUDY    47  36  65 NW8       30.02R
LANCASTER      CLOUDY    45  34  65 NW12      30.02R
COATESVILLE    CLOUDY    48  41  76 NW10      30.02R
POTTSTOWN      CLOUDY    47  40  76 CALM      30.03R
BLUE BELL      CLOUDY    48  43  81 CALM      30.00R
DOYLESTOWN     CLOUDY    47  40  76 NW5       30.00R
WILLOW GROVE   NOT AVBL
NORTH PHILA    CLOUDY    51  39  63 W6        30.02S
PHILADELPHIA   CLOUDY    51  43  74 W7        30.02R
$$



USA.gov is the U.S. government's official web portal to all federal, state and local government web resources and services.